Location: Le Petit-Vavre
(46.5081°N, 1.5239°E)
Time: 14:09:41
(UTC+00:00)

Cosmos 1666 - Pass Details

Date: 03 March 2021
Orbit: 497 x 518 km, 82.5° (Epoch: 14 April)

Event Time Altitude Azimuth Distance (km) Brightness Sun altitude
Rises 20:03:29 0° 208° (SSW) 2,574 6.4 -24.7°
Reaches altitude 10° 20:05:43 10° 218° (SW) 1,697 5.5 -25.1°
Maximum altitude 20:09:08 34° 285° (WNW) 842 4.3 -25.6°
Drops below altitude 10° 20:12:35 10° 352° (N) 1,716 5.6 -26.2°
Sets 20:14:51 0° 2° (N) 2,608 6.5 -26.6°
